PulseSat

PulseSat

AMC-10 (GE-10)

Last updated on Dec. 19, 2018, 12:08 a.m. UTC

1 28154U 04003A   18352.42410580  .00000105  00000-0  00000+0 0  9995
2 28154   0.0232 305.2301 0000628 333.3193 186.1175  1.00273209 54488
UTC
Height (km)
Latitude
Longitude
Inclination
Orbital Period

Next 30 passes for location: Hong Kong

Rise time Rise Azimuth (degrees) Set time Set Azimuth (degrees) Duration Max altitude (degrees)

No matching passes for this satellites

PulseSat

PulseSat is the new satellites software and hardware trackering solution by Pulsely.
Satellite Two Line Element Set source: US Air Force Space Command

Download PulseSat for iOS
© 2017 Pulsely Limited